Time,TemperatureF,DewpointF,PressureIn,WindDirection,WindDirectionDegrees,WindSpeedMPH,WindSpeedGustMPH,Humidity,HourlyPrecipIn,Conditions,Clouds,dailyrainin,SoftwareType,DateUTC
2013-01-10 01:32:00,36.0,30.0,-100.00,SSE,160,3.0,-999.0,78,-99.99,,,-99.99,,2013-01-10 08:32:00,
2013-01-10 01:42:00,36.0,30.0,-100.00,SSE,160,3.0,-999.0,78,-99.99,,,-99.99,,2013-01-10 08:42:00,
2013-01-10 01:52:00,36.0,30.0,-100.00,SSE,160,3.0,-999.0,78,-99.99,,,-99.99,,2013-01-10 08:52:00,
2013-01-10 02:32:00,40.0,30.0,-100.00,North,0,0.0,-999.0,67,-99.99,,,-99.99,,2013-01-10 09:32:00,
2013-01-10 02:42:00,40.0,30.0,-100.00,North,0,0.0,-999.0,67,-99.99,,,-99.99,,2013-01-10 09:42:00,
2013-01-10 02:52:00,40.0,30.0,-100.00,North,0,0.0,-999.0,67,-99.99,,,-99.99,,2013-01-10 09:52:00,
2013-01-10 03:32:00,37.0,30.0,-100.00,NNE,30,3.0,-999.0,76,-99.99,,,-99.99,,2013-01-10 10:32:00,
2013-01-10 03:42:00,37.0,30.0,-100.00,NNE,30,3.0,-999.0,76,-99.99,,,-99.99,,2013-01-10 10:42:00,
2013-01-10 03:52:00,37.0,30.0,-100.00,NNE,30,3.0,-999.0,76,-99.99,,,-99.99,,2013-01-10 10:52:00,
2013-01-10 04:32:00,36.0,29.0,-100.00,NNE,30,6.0,-999.0,75,-99.99,,,-99.99,,2013-01-10 11:32:00,
2013-01-10 04:43:00,36.0,29.0,-100.00,NNE,30,6.0,-999.0,75,-99.99,,,-99.99,,2013-01-10 11:43:00,
2013-01-10 04:52:00,36.0,29.0,-100.00,NNE,30,6.0,-999.0,75,-99.99,,,-99.99,,2013-01-10 11:52:00,
2013-01-10 05:33:00,38.0,30.0,-100.00,North,10,3.0,-999.0,72,-99.99,,,-99.99,,2013-01-10 12:33:00,
2013-01-10 05:43:00,38.0,30.0,-100.00,North,10,3.0,-999.0,72,-99.99,,,-99.99,,2013-01-10 12:43:00,
2013-01-10 05:52:00,38.0,30.0,-100.00,North,10,3.0,-999.0,72,-99.99,,,-99.99,,2013-01-10 12:52:00,
2013-01-10 06:32:00,37.0,30.0,-100.00,SE,140,3.0,-999.0,76,-99.99,,,-99.99,,2013-01-10 13:32:00,
2013-01-10 06:42:00,37.0,30.0,-100.00,SE,140,3.0,-999.0,76,-99.99,,,-99.99,,2013-01-10 13:42:00,
2013-01-10 06:52:00,37.0,30.0,-100.00,SE,140,3.0,-999.0,76,-99.99,,,-99.99,,2013-01-10 13:52:00,
2013-01-10 07:33:00,36.0,30.0,-100.00,NE,50,3.0,-999.0,79,-99.99,,,-99.99,,2013-01-10 14:33:00,
2013-01-10 07:43:00,36.0,30.0,-100.00,NE,50,3.0,-999.0,79,-99.99,,,-99.99,,2013-01-10 14:43:00,
2013-01-10 07:53:00,36.0,30.0,-100.00,NE,50,3.0,-999.0,79,-99.99,,,-99.99,,2013-01-10 14:53:00,
2013-01-10 08:33:00,36.0,30.0,-100.00,South,190,6.0,-999.0,78,-99.99,,,-99.99,,2013-01-10 15:33:00,
2013-01-10 08:43:00,36.0,30.0,-100.00,South,190,6.0,-999.0,78,-99.99,,,-99.99,,2013-01-10 15:43:00,
2013-01-10 08:53:00,36.0,30.0,-100.00,South,190,6.0,-999.0,78,-99.99,,,-99.99,,2013-01-10 15:53:00,
2013-01-10 09:33:00,34.0,30.0,-100.00,NW,320,2.0,-999.0,85,-99.99,,,-99.99,,2013-01-10 16:33:00,
2013-01-10 09:43:00,34.0,30.0,-100.00,NW,320,2.0,-999.0,85,-99.99,,,-99.99,,2013-01-10 16:43:00,
2013-01-10 09:52:00,34.0,30.0,-100.00,NW,320,2.0,-999.0,85,-99.99,,,-99.99,,2013-01-10 16:52:00,
2013-01-10 10:33:00,33.0,28.0,-100.00,North,10,1.0,-999.0,81,-99.99,,,-99.99,,2013-01-10 17:33:00,
2013-01-10 10:42:00,33.0,28.0,-100.00,North,10,1.0,-999.0,81,-99.99,,,-99.99,,2013-01-10 17:42:00,
2013-01-10 10:53:00,33.0,28.0,-100.00,North,10,1.0,-999.0,81,-99.99,,,-99.99,,2013-01-10 17:53:00,
2013-01-10 11:33:00,32.0,29.0,-100.00,NNW,330,12.0,-999.0,88,-99.99,,,-99.99,,2013-01-10 18:33:00,
2013-01-10 11:43:00,32.0,29.0,-100.00,NNW,330,12.0,-999.0,88,-99.99,,,-99.99,,2013-01-10 18:43:00,
2013-01-10 11:52:00,32.0,29.0,-100.00,NNW,330,12.0,-999.0,88,-99.99,,,-99.99,,2013-01-10 18:52:00,
2013-01-10 12:33:00,29.0,26.0,-100.00,NNW,330,12.0,24.0,88,-99.99,,,-99.99,,2013-01-10 19:33:00,
2013-01-10 12:43:00,29.0,26.0,-100.00,NNW,330,12.0,24.0,88,-99.99,,,-99.99,,2013-01-10 19:43:00,
2013-01-10 12:53:00,29.0,26.0,-100.00,NNW,330,12.0,24.0,88,-99.99,,,-99.99,,2013-01-10 19:53:00,
2013-01-10 13:33:00,26.0,23.0,-100.00,NNW,340,15.0,24.0,87,-99.99,,,-99.99,,2013-01-10 20:33:00,
2013-01-10 13:43:00,26.0,23.0,-100.00,NNW,340,15.0,24.0,87,-99.99,,,-99.99,,2013-01-10 20:43:00,
2013-01-10 13:53:00,26.0,23.0,-100.00,NNW,340,15.0,24.0,87,-99.99,,,-99.99,,2013-01-10 20:53:00,
2013-01-10 14:33:00,25.0,21.0,-100.00,NNW,330,13.0,23.0,84,-99.99,,,-99.99,,2013-01-10 21:33:00,
2013-01-10 14:42:00,25.0,21.0,-100.00,NNW,330,13.0,23.0,84,-99.99,,,-99.99,,2013-01-10 21:42:00,
2013-01-10 14:53:00,25.0,21.0,-100.00,NNW,330,13.0,23.0,84,-99.99,,,-99.99,,2013-01-10 21:53:00,
2013-01-10 16:33:00,21.0,17.0,-100.00,NNW,330,12.0,20.0,84,-99.99,,,-99.99,,2013-01-10 23:33:00,
2013-01-10 16:43:00,21.0,17.0,-100.00,NNW,330,12.0,20.0,84,-99.99,,,-99.99,,2013-01-10 23:43:00,
2013-01-10 16:53:00,21.0,17.0,-100.00,NNW,330,12.0,20.0,84,-99.99,,,-99.99,,2013-01-10 23:53:00,
2013-01-10 17:33:00,20.0,16.0,-100.00,NNW,340,12.0,20.0,84,-99.99,,,-99.99,,2013-01-11 00:33:00,
2013-01-10 17:42:00,20.0,16.0,-100.00,NNW,340,12.0,20.0,84,-99.99,,,-99.99,,2013-01-11 00:42:00,
2013-01-10 17:52:00,20.0,16.0,-100.00,NNW,340,12.0,20.0,84,-99.99,,,-99.99,,2013-01-11 00:52:00,
2013-01-10 18:33:00,20.0,16.0,-100.00,North,350,10.0,-999.0,84,-99.99,,,-99.99,,2013-01-11 01:33:00,
2013-01-10 18:43:00,20.0,16.0,-100.00,North,350,10.0,-999.0,84,-99.99,,,-99.99,,2013-01-11 01:43:00,
2013-01-10 18:53:00,20.0,16.0,-100.00,North,350,10.0,-999.0,84,-99.99,,,-99.99,,2013-01-11 01:53:00,
2013-01-10 19:33:00,18.0,14.0,-100.00,North,350,12.0,20.0,84,-99.99,,,-99.99,,2013-01-11 02:33:00,
2013-01-10 19:43:00,18.0,14.0,-100.00,North,350,12.0,20.0,84,-99.99,,,-99.99,,2013-01-11 02:43:00,
2013-01-10 19:53:00,18.0,14.0,-100.00,North,350,12.0,20.0,84,-99.99,,,-99.99,,2013-01-11 02:53:00,
2013-01-10 20:33:00,17.0,14.0,-100.00,North,350,9.0,-999.0,87,-99.99,,,-99.99,,2013-01-11 03:33:00,
2013-01-10 20:43:00,17.0,14.0,-100.00,North,350,9.0,-999.0,87,-99.99,,,-99.99,,2013-01-11 03:43:00,
2013-01-10 20:53:00,17.0,14.0,-100.00,North,350,9.0,-999.0,87,-99.99,,,-99.99,,2013-01-11 03:53:00,
2013-01-10 21:33:00,14.0,11.0,-100.00,NNW,330,8.0,-999.0,87,-99.99,,,-99.99,,2013-01-11 04:33:00,
2013-01-10 21:43:00,14.0,11.0,-100.00,NNW,330,8.0,-999.0,87,-99.99,,,-99.99,,2013-01-11 04:43:00,
2013-01-10 21:52:00,14.0,11.0,-100.00,NNW,330,8.0,-999.0,87,-99.99,,,-99.99,,2013-01-11 04:52:00,
2013-01-10 22:33:00,13.0,11.0,-100.00,NW,320,10.0,18.0,91,-99.99,,,-99.99,,2013-01-11 05:33:00,
2013-01-10 22:43:00,13.0,11.0,-100.00,NW,320,10.0,18.0,91,-99.99,,,-99.99,,2013-01-11 05:43:00,
2013-01-10 22:52:00,13.0,11.0,-100.00,NW,320,10.0,18.0,91,-99.99,,,-99.99,,2013-01-11 05:52:00,
2013-01-10 23:32:00,13.0,11.0,-100.00,NW,310,6.0,-999.0,91,-99.99,,,-99.99,,2013-01-11 06:32:00,
2013-01-10 23:42:00,13.0,11.0,-100.00,NW,310,6.0,-999.0,91,-99.99,,,-99.99,,2013-01-11 06:42:00,
2013-01-10 23:52:00,13.0,11.0,-100.00,NW,310,6.0,-999.0,91,-99.99,,,-99.99,,2013-01-11 06:52:00,